Voltar ao catálogo

STARLINK-38034

AtivoComunicaçõesVLEO
NORAD 100026·PAYLOAD·🇺🇸 United States

Lançado Jul 14, 2026 de Vandenberg Space Force Base

Loading…

Próximas Passagens (próximas 24 horas)

TLE

EnvelhecendoSource: Space-Track

Época: Sep 13, 2026, 06:46 UTC

1 A0026U 26160AB  26256.28241239  .00129055  00000-0  76293-3 0  9997
2 A0026  70.0015 215.4227 0003198 266.3030  93.7804 15.77583614 10859

Acompanhe STARLINK-38034 em tempo real com AllMySat

Download on the App Store